FW9431 Weather Reports


time (UTC)temp
C
wind
direction
speed
KPH
gust
KPH
rain 1hr
cm
rain 24hr
cm
rain mn
cm
humidity
%
barometer
mb
20260505122138 15 215 3.2 4.8 0.00 0.00 0.00 77 1006.5
20260505121634 15 4 0.0 3.2 0.00 0.00 0.00 77 1006.1
20260505121131 15 326 1.6 3.2 0.00 0.00 0.00 77 1006.3
20260505120627 15 114 1.6 9.7 0.00 0.00 0.00 77 1006.0
20260505120123 16 273 1.6 4.8 0.00 0.00 0.00 76 1006.4
20260505115618 16 289 4.8 9.7 0.00 0.00 0.00 75 1006.0
20260505115115 16 249 3.2 4.8 0.00 0.00 0.00 75 1006.0
20260505114612 16 3 1.6 3.2 0.00 0.00 0.00 74 1006.3
20260505114109 16 282 3.2 9.7 0.00 0.00 0.00 74 1006.3
20260505113605 16 330 1.6 3.2 0.00 0.00 0.00 74 1006.3
20260505113102 16 317 1.6 4.8 0.00 0.00 0.00 73 1006.3
20260505112558 16 273 3.2 4.8 0.00 0.00 0.00 73 1006.0
20260505112056 16 352 1.6 3.2 0.00 0.00 0.00 73 1006.4
20260505111550 16 354 4.8 8.0 0.00 0.00 0.00 72 1006.1
20260505111046 16 265 1.6 4.8 0.00 0.00 0.00 72 1006.0
20260505110543 16 352 3.2 8.0 0.00 0.00 0.00 71 1005.9
20260505102015 16 305 1.6 11.3 0.00 0.00 0.00 69 1006.3
20260505101514 16 2 0.0 4.8 0.00 0.00 0.00 68 1006.0
20260505101010 17 236 6.4 9.7 0.00 0.00 0.00 68 1006.4
20260505100507 16 77 6.4 8.0 0.00 0.00 0.00 68 1006.4
20260505100004 17 25 1.6 4.8 0.00 0.00 0.00 67 1006.1
20260505095459 17 302 1.6 3.2 0.00 0.00 0.00 67 1006.1
20260505094956 17 314 1.6 3.2 0.00 0.00 0.00 66 1006.0
20260505094453 17 244 1.6 9.7 0.00 0.00 0.00 66 1006.0
20260505093949 17 313 4.8 9.7 0.00 0.00 0.00 65 1005.9
20260505093446 17 212 8.0 12.9 0.00 0.00 0.00 65 1005.9
20260505092943 17 315 4.8 8.0 0.00 0.00 0.00 65 1005.7
20260505092440 17 143 6.4 9.7 0.00 0.00 0.00 64 1005.9
20260505091938 17 301 3.2 4.8 0.00 0.00 0.00 64 1005.6
20260505091435 17 337 3.2 12.9 0.00 0.00 0.00 64 1005.6
20260505090933 17 132 4.8 11.3 0.00 0.00 0.00 63 1005.6
20260505090431 17 343 3.2 8.0 0.00 0.00 0.00 63 1005.7
20260505085928 18 301 4.8 12.9 0.00 0.00 0.00 62 1005.7
20260505085426 18 322 4.8 17.7 0.00 0.00 0.00 62 1005.4
20260505084924 18 78 4.8 9.7 0.00 0.00 0.00 62 1005.3
20260505084422 18 288 11.3 14.5 0.00 0.00 0.00 61 1005.4
20260505083920 18 201 4.8 12.9 0.00 0.00 0.00 61 1005.1
20260505083417 18 269 8.0 14.5 0.00 0.00 0.00 60 1005.2
20260505082913 18 260 8.0 14.5 0.00 0.00 0.00 61 1005.0
20260505082409 18 287 4.8 14.5 0.00 0.00 0.00 60 1005.0
20260505081906 18 210 9.7 11.3 0.00 0.00 0.00 60 1004.9
20260505081403 18 238 9.7 24.1 0.00 0.00 0.00 60 1004.7
20260505080859 18 323 1.6 16.1 0.00 0.00 0.00 61 1004.7
20260505080355 18 236 3.2 14.5 0.00 0.00 0.00 61 1004.7
20260505075851 18 109 6.4 12.9 0.00 0.00 0.00 60 1004.8
20260505075348 19 15 4.8 14.5 0.00 0.00 0.00 59 1004.9
20260505074845 19 118 6.4 17.7 0.00 0.00 0.00 59 1004.9
20260505074342 19 202 11.3 17.7 0.00 0.00 0.00 59 1004.7
20260505073840 18 156 14.5 27.4 0.00 0.00 0.00 59 1004.6
20260505073338 19 257 4.8 14.5 0.00 0.00 0.00 59 1004.5
20260505072834 19 229 11.3 17.7 0.00 0.00 0.00 59 1004.6
20260505072330 19 197 11.3 14.5 0.00 0.00 0.00 58 1004.6
20260505071826 19 161 6.4 17.7 0.00 0.00 0.00 58 1004.6
20260505071323 19 198 4.8 12.9 0.00 0.00 0.00 58 1004.5
20260505070821 19 266 3.2 12.9 0.00 0.00 0.00 58 1004.5
20260505070318 19 303 3.2 11.3 0.00 0.00 0.00 59 1004.4
20260505065813 19 353 4.8 11.3 0.00 0.00 0.00 58 1004.4
20260505065310 19 258 6.4 14.5 0.00 0.00 0.00 58 1004.5
20260505064807 19 203 6.4 8.0 0.00 0.00 0.00 60 1004.4
20260505064304 19 236 3.2 16.1 0.00 0.00 0.00 59 1004.3
20260505063802 18 195 4.8 8.0 0.00 0.00 0.00 61 1004.5
20260505063258 19 165 1.6 14.5 0.00 0.00 0.00 60 1004.4
20260505062754 18 186 8.0 16.1 0.00 0.00 0.00 60 1004.4
20260505062252 19 55 3.2 9.7 0.00 0.00 0.00 60 1004.4
20260505061749 18 311 4.8 16.1 0.00 0.00 0.00 60 1004.4
20260505061247 18 167 3.2 9.7 0.00 0.00 0.00 61 1004.6
20260505060744 19 166 8.0 14.5 0.00 0.00 0.00 61 1004.5
20260505060241 19 250 4.8 12.9 0.00 0.00 0.00 60 1004.7
20260505055736 19 152 4.8 8.0 0.00 0.00 0.00 61 1004.7
20260505055233 19 217 6.4 11.3 0.00 0.00 0.00 60 1004.7
20260505054730 19 151 4.8 11.3 0.00 0.00 0.00 60 1004.7
20260505054228 19 231 4.8 12.9 0.00 0.00 0.00 61 1004.8
20260505053726 19 256 6.4 17.7 0.00 0.00 0.00 61 1005.0
20260505053222 19 230 11.3 14.5 0.00 0.00 0.00 62 1004.7
20260505052719 18 208 1.6 9.7 0.00 0.00 0.00 62 1005.0
20260505052216 19 218 4.8 11.3 0.00 0.00 0.00 62 1005.0
20260505051713 19 236 8.0 12.9 0.00 0.00 0.00 61 1005.0
20260505051211 19 256 4.8 11.3 0.00 0.00 0.00 61 1005.2
20260505050709 19 183 6.4 14.5 0.00 0.00 0.00 61 1005.1
20260505050207 19 188 3.2 11.3 0.00 0.00 0.00 61 1005.0
20260505041637 19 338 1.6 4.8 0.00 0.00 0.00 63 1005.1
20260505041134 19 228 3.2 9.7 0.00 0.00 0.00 62 1005.3
20260505040631 19 189 6.4 9.7 0.00 0.00 0.00 62 1005.1
20260505040128 19 181 4.8 8.0 0.00 0.00 0.00 63 1004.9
20260505035624 18 330 3.2 9.7 0.00 0.00 0.00 63 1005.1
20260505035120 18 250 1.6 8.0 0.00 0.00 0.00 65 1005.2
20260505034617 18 146 3.2 8.0 0.00 0.00 0.00 66 1005.1
20260505034114 18 198 4.8 4.8 0.00 0.00 0.00 66 1005.0
20260505033611 18 359 0.0 4.8 0.00 0.00 0.00 67 1005.2
20260505033110 18 9 1.6 8.0 0.00 0.00 0.00 67 1005.1
20260505032607 17 171 3.2 3.2 0.00 0.00 0.00 68 1005.2
20260505032103 17 342 1.6 8.0 0.00 0.00 0.00 69 1005.1
20260505031601 17 326 0.0 3.2 0.00 0.00 0.00 70 1004.9
20260505031057 17 16 0.0 4.8 0.00 0.00 0.00 69 1005.1
20260505030554 17 273 1.6 3.2 0.00 0.00 0.00 69 1005.1
20260505030050 17 30 1.6 3.2 0.00 0.00 0.00 70 1005.1
20260505025545 17 355 0.0 3.2 0.00 0.00 0.00 70 1005.0
20260505025045 17 345 1.6 4.8 0.00 0.00 0.00 70 1004.9
20260505024541 17 152 1.6 8.0 0.00 0.00 0.00 70 1005.0
20260505024038 17 177 4.8 4.8 0.00 0.00 0.00 70 1005.0
20260505023535 17 13 1.6 3.2 0.00 0.00 0.00 71 1004.9
20260505023033 17 99 0.0 4.8 0.00 0.00 0.00 72 1005.0
20260505022530 17 0 1.6 1.6 0.00 0.00 0.00 72 1005.0
20260505022028 17 349 1.6 3.2 0.00 0.00 0.00 72 1005.0
20260505021524 17 24 0.0 3.2 0.00 0.00 0.00 73 1005.0
20260505021021 17 80 0.0 1.6 0.00 0.00 0.00 73 1004.8
20260505020520 17 2 0.0 0.0 0.00 0.00 0.00 72 1004.9
20260505020018 17 351 0.0 3.2 0.00 0.00 0.00 72 1004.9
20260505015515 17 356 0.0 1.6 0.00 0.00 0.00 72 1005.2
20260505015012 17 205 0.0 3.2 0.00 0.00 0.00 71 1005.1
20260505014509 17 333 1.6 1.6 0.00 0.00 0.00 71 1005.0
20260505014006 17 16 1.6 3.2 0.00 0.00 0.00 71 1004.8
20260505013503 17 336 0.0 4.8 0.00 0.00 0.00 72 1004.6
20260505013000 17 356 0.0 1.6 0.00 0.00 0.00 71 1004.6
20260505012458 17 0 0.0 3.2 0.00 0.00 0.00 71 1004.5
20260505011955 17 5 0.0 3.2 0.00 0.00 0.00 71 1004.5
20260505011451 17 74 1.6 3.2 0.00 0.00 0.00 71 1004.6
20260505010948 17 358 0.0 0.0 0.00 0.00 0.00 71 1004.6
20260505010443 17 357 0.0 0.0 0.00 0.00 0.00 70 1004.6
20260505005939 17 357 0.0 1.6 0.00 0.00 0.00 70 1004.5
20260505005436 18 357 0.0 1.6 0.00 0.00 0.00 69 1004.6
20260505004934 18 2 0.0 1.6 0.00 0.00 0.00 69 1004.7
20260505004430 18 1 0.0 0.0 0.00 0.00 0.00 68 1004.5
20260505003928 18 358 0.0 0.0 0.00 0.00 0.00 67 1004.5
20260505003425 18 21 1.6 3.2 0.00 0.00 0.00 67 1004.3
20260505002921 18 356 1.6 3.2 0.00 0.00 0.00 66 1004.5
20260505002417 19 324 1.6 4.8 0.00 0.00 0.00 65 1004.5
20260505001916 20 61 4.8 4.8 0.00 0.00 0.00 64 1004.7
20260505001413 20 146 3.2 4.8 0.00 0.00 0.00 63 1004.4
20260505000910 20 351 1.6 3.2 0.00 0.00 0.00 62 1004.6
20260505000408 20 228 4.8 9.7 0.00 0.00 0.00 61 1004.3
20260504235904 20 107 3.2 4.8 0.00 0.00 0.00 61 1004.5
20260504235402 21 93 3.2 8.0 0.00 0.00 0.00 59 1004.5
20260504234857 21 191 3.2 9.7 0.00 0.00 0.00 58 1004.6
20260504234355 21 257 3.2 11.3 0.00 0.00 0.00 56 1004.5
20260504233852 21 205 8.0 12.9 0.00 0.00 0.00 56 1004.8
20260504233347 21 218 4.8 8.0 0.00 0.00 0.00 57 1004.7
20260504232844 21 269 4.8 11.3 0.00 0.00 0.00 58 1004.9
20260504232342 20 163 6.4 11.3 0.00 0.00 0.00 59 1004.7
20260504231838 21 130 3.2 8.0 0.00 0.00 0.00 59 1004.7
20260504231335 21 168 3.2 8.0 0.00 0.00 0.00 58 1004.6
20260504230831 21 223 4.8 8.0 0.00 0.00 0.00 57 1004.9
20260504230329 21 348 3.2 14.5 0.00 0.00 0.00 57 1005.0
20260504225827 21 148 1.6 8.0 0.00 0.00 0.00 57 1005.2
20260504225323 21 202 4.8 11.3 0.00 0.00 0.00 56 1005.2
20260504224821 21 258 4.8 9.7 0.00 0.00 0.00 58 1005.3
20260504224318 21 294 3.2 8.0 0.00 0.00 0.00 58 1005.5
20260504223814 21 102 3.2 9.7 0.00 0.00 0.00 58 1005.3
20260504223310 20 197 4.8 9.7 0.00 0.00 0.00 58 1005.3
20260504222807 20 344 3.2 8.0 0.00 0.00 0.00 59 1005.3
20260504222305 20 180 3.2 4.8 0.00 0.00 0.00 60 1005.3
20260504221802 20 75 3.2 11.3 0.00 0.00 0.00 59 1005.3
20260504221258 20 310 6.4 12.9 0.00 0.00 0.00 57 1005.3
20260504220755 21 193 4.8 24.1 0.00 0.00 0.00 57 1005.5
20260504220252 21 300 4.8 12.9 0.00 0.00 0.00 58 1005.3
20260504215749 21 257 4.8 17.7 0.00 0.00 0.00 58 1005.6
20260504215246 20 265 3.2 12.9 0.00 0.00 0.00 59 1005.3
20260504214742 21 150 9.7 16.1 0.00 0.00 0.00 57 1005.6
20260504214238 21 333 3.2 16.1 0.00 0.00 0.00 57 1005.6
20260504213735 21 321 4.8 16.1 0.00 0.00 0.00 56 1005.6
20260504213232 21 220 12.9 16.1 0.00 0.00 0.00 56 1005.3
20260504212729 20 188 6.4 11.3 0.00 0.00 0.00 57 1005.5
20260504212225 20 172 3.2 8.0 0.00 0.00 0.00 59 1005.1
20260504211722 20 265 4.8 9.7 0.00 0.00 0.00 59 1005.0
20260504211213 20 230 8.0 11.3 0.00 0.00 0.00 58 1004.9
20260504210711 20 166 8.0 11.3 0.00 0.00 0.00 59 1005.2
20260504210207 20 68 3.2 4.8 0.00 0.00 0.00 61 1005.2
20260504205704 20 187 3.2 20.9 0.00 0.00 0.00 60 1005.5
20260504205201 20 357 6.4 17.7 0.00 0.00 0.00 59 1005.9
20260504204700 20 159 9.7 14.5 0.00 0.00 0.00 59 1005.8
20260504204159 20 2 4.8 11.3 0.00 0.00 0.00 59 1006.1
20260504203657 20 215 6.4 11.3 0.00 0.00 0.00 57 1006.4
20260504203155 21 195 8.0 17.7 0.00 0.00 0.00 57 1006.1
20260504202654 21 180 6.4 27.4 0.00 0.00 0.00 56 1006.3
20260504202152 21 242 11.3 24.1 0.00 0.00 0.00 55 1006.6
20260504201649 21 231 17.7 24.1 0.00 0.00 0.00 53 1006.4
20260504201146 22 274 8.0 16.1 0.00 0.00 0.00 52 1006.4
20260504200643 22 144 17.7 27.4 0.00 0.00 0.00 51 1006.3
20260504200140 22 244 8.0 20.9 0.00 0.00 0.00 52 1006.1
20260504195636 22 231 4.8 14.5 0.00 0.00 0.00 51 1006.0
20260504195132 22 158 8.0 12.9 0.00 0.00 0.00 51 1006.1
20260504194629 22 302 8.0 14.5 0.00 0.00 0.00 54 1006.3
20260504194125 22 340 4.8 25.7 0.00 0.00 0.00 52 1006.4
20260504193621 22 178 6.4 17.7 0.00 0.00 0.00 52 1006.4
20260504193120 22 275 4.8 11.3 0.00 0.00 0.00 52 1006.1
20260504192617 22 266 6.4 25.7 0.00 0.00 0.00 51 1006.0
20260504192115 22 277 8.0 17.7 0.00 0.00 0.00 53 1005.9
20260504191614 21 153 4.8 16.1 0.00 0.00 0.00 53 1006.1
20260504191109 21 23 3.2 11.3 0.00 0.00 0.00 54 1006.0
20260504190606 21 169 8.0 17.7 0.00 0.00 0.00 53 1006.0
20260504185559 21 150 4.8 12.9 0.00 0.00 0.00 53 1005.9
20260504185055 21 222 9.7 29.0 0.00 0.00 0.00 52 1006.3
20260504184551 21 203 4.8 22.5 0.00 0.00 0.00 53 1006.4
20260504184046 21 225 4.8 14.5 0.00 0.00 0.00 55 1006.5
20260504183544 21 155 11.3 12.9 0.00 0.00 0.00 54 1006.1
20260504183042 21 231 6.4 12.9 0.00 0.00 0.00 55 1006.1
20260504182539 20 311 4.8 20.9 0.00 0.00 0.00 56 1006.4
20260504182036 21 248 4.8 14.5 0.00 0.00 0.00 56 1006.5
20260504181533 21 271 4.8 14.5 0.00 0.00 0.00 56 1006.1
20260504181031 21 236 3.2 9.7 0.00 0.00 0.00 56 1006.1
20260504180530 21 210 8.0 17.7 0.00 0.00 0.00 55 1006.4
20260504180028 20 220 11.3 20.9 0.00 0.00 0.00 54 1006.3
20260504175525 21 202 11.3 16.1 0.00 0.00 0.00 54 1006.4
20260504175022 21 279 8.0 16.1 0.00 0.00 0.00 54 1006.5
20260504174520 20 0 1.6 17.7 0.00 0.00 0.00 57 1006.6
20260504174016 21 155 12.9 22.5 0.00 0.00 0.00 55 1006.6
20260504173513 20 77 3.2 16.1 0.00 0.00 0.00 57 1006.6
20260504173011 20 201 11.3 16.1 0.00 0.00 0.00 56 1006.8
20260504172507 20 139 8.0 14.5 0.00 0.00 0.00 56 1006.6
20260504172003 20 186 8.0 16.1 0.00 0.00 0.00 57 1006.6
20260504171500 20 174 16.1 20.9 0.00 0.00 0.00 57 1006.9
20260504170957 20 220 8.0 16.1 0.00 0.00 0.00 58 1006.7
20260504170453 20 2 4.8 12.9 0.00 0.00 0.00 57 1006.8
20260504160413 18 236 14.5 20.9 0.00 0.00 0.00 59 1007.6
20260504150837 17 212 8.0 11.3 0.00 0.00 0.00 60 1007.9
20260504150333 17 193 8.0 16.1 0.00 0.00 0.00 60 1008.0
20260504141304 15 143 11.3 17.7 0.00 0.00 0.00 60 1008.3
20260504140800 15 195 8.0 20.9 0.00 0.00 0.00 61 1008.3
20260504140256 15 220 4.8 14.5 0.00 0.00 0.00 60 1008.3
20260504130725 15 124 6.4 12.9 0.00 0.00 0.00 59 1008.5
20260504130220 14 280 4.8 16.1 0.00 0.00 0.00 59 1008.5